Kezdőlap
METAR-TAF:

METAR-TAF

Repülőterek :

Flying Cloud Airport

Minneapolis-Eden Prairie, Minnesota, Amerikai Egyesült Államok

földrajzi szélesség: 44-49-56N, földrajzi hosszúság: 093-28-13W, magasság: 287 m

Jelenlegi meteorológiai megfigyelések

A jelentés 36 perccel ezelõtt készült, 17:53 UTC
Északi szél 8 kt
Hőmérséklet 21°C
Páratartalom 73%
Légköri nyomás 1016 hPa
Látótávolság: 16.1 km
Borult 2100 lábon

METAR: KFCM 131753Z 36008KT 10SM OVC021 21/16 A3000 RMK AO2 SLP155 T02110156 10211 20172 51014

Idő: 13:29 (18:29 UTC)


TAF: hiányzik

Meteorológiai megfigyelések és előrejelzések több, mint 4000 repülőtéren (METAR és TAF jelentéseket).

A térképen piros és sárga pontok jelzik az elérhető meteorológiai állomásokat.

Mozgassa az egeret a pont fölött, hogy megjelenjen az állomás neve.

Azután kattintson az időjárási megfigyelések és előrejelzések megtekintéséhez.

A térkép megváltoztatása: kattintson a fekete keresztel jelölt zöld gombra ráközelítéshez, a vonallal jelölt zöld gombra távolításhoz, vagy a zöld nyilakra a szomszédos térképek eléréséhez.


METAR-TAF: